DLH290 EDDH-TNCM

Flight info

Callsign DLH290
Flight time N/A
Altitude 30000
Route WSN5G/33 WSN N125 SILQI N872 PAM L980 IDRID M40 NILON L610 GILDA L620 SAM/N0486F310 M195 LORKU DCT ERCOZ DCT KOLEK DCT KORUL DCT RIMTU DCT RIPEL/N0485F320 DCT RETEN/M083F320 DCT BANAL DCT 41N019W 41N023W 39N029W 37N035W/M083F340 35N041W 33N047W 31N049W/M083F360 27N053W 23N057W DCT RKDIA M576 OBIKE/N0489F360 M576 MNOLO
Aircraft A343/H-SDE2E3FGHIJ4J5M1RWXY/LB1D1

Departure

Time 2026-04-25 15:31
Airport Hamburg Helmut Schmidt Airport (EDDH)

Arrival

Time N/A
Airport Princess Juliana International Airport (TNCM)
Time Latitude Longitude Altitude Speed Heading
2026-04-25 15:07 53.63013 10.00338 52 ft 0 kts 122°
2026-04-25 15:22 53.63024 10.00309 52 ft 4 kts 122°
2026-04-25 15:23 53.63036 10.00279 49 ft 4 kts 129°
2026-04-25 15:23 53.63055 10.00248 49 ft 4 kts 149°
2026-04-25 15:23 53.63079 10.00230 46 ft 4 kts 168°
2026-04-25 15:23 53.63106 10.00225 52 ft 4 kts 179°
2026-04-25 15:24 53.63123 10.00224 47 ft 0 kts 175°
2026-04-25 15:27 53.63116 10.00225 47 ft 2 kts 175°
2026-04-25 15:28 53.63093 10.00224 52 ft 4 kts 185°
2026-04-25 15:28 53.63058 10.00206 52 ft 5 kts 201°
2026-04-25 15:28 53.63027 10.00177 51 ft 6 kts 210°
2026-04-25 15:28 53.62987 10.00134 47 ft 8 kts 214°
2026-04-25 15:29 53.62938 10.00079 48 ft 9 kts 211°
2026-04-25 15:29 53.62887 10.00038 50 ft 8 kts 206°
2026-04-25 15:29 53.62851 9.99980 49 ft 7 kts 237°
2026-04-25 15:29 53.62826 9.99902 47 ft 8 kts 241°
2026-04-25 15:30 53.62814 9.99804 49 ft 7 kts 289°
2026-04-25 15:30 53.62850 9.99764 47 ft 7 kts 332°
2026-04-25 15:30 53.62986 9.99647 49 ft 45 kts 332°
2026-04-25 15:30 53.63426 9.99264 51 ft 97 kts 333°
2026-04-25 15:31 53.64174 9.98613 52 ft 143 kts 333°
2026-04-25 15:31 53.65164 9.97767 294 ft 165 kts 329°
2026-04-25 15:31 53.66204 9.96901 770 ft 173 kts 330°
2026-04-25 15:31 53.67285 9.95986 1350 ft 177 kts 330°
2026-04-25 15:32 53.68395 9.95038 1763 ft 179 kts 329°
2026-04-25 15:32 53.69519 9.94064 2152 ft 188 kts 328°
2026-04-25 15:32 53.70607 9.92791 2603 ft 190 kts 310°
2026-04-25 15:33 53.71342 9.88767 3849 ft 191 kts 265°
2026-04-25 15:33 53.70984 9.86473 4116 ft 213 kts 257°
2026-04-25 15:33 53.70478 9.83996 4405 ft 231 kts 256°
2026-04-25 15:33 53.69932 9.81381 4831 ft 243 kts 256°
2026-04-25 15:34 53.69373 9.78655 5193 ft 247 kts 257°
2026-04-25 15:34 53.68816 9.75905 5898 ft 246 kts 257°
2026-04-25 15:34 53.68267 9.73170 6563 ft 248 kts 258°
2026-04-25 15:34 53.68083 9.72241 6770 ft 249 kts 258°
2026-04-25 15:35 53.66603 9.64760 8399 ft 256 kts 258°
2026-04-25 15:35 53.66037 9.61892 8999 ft 259 kts 258°
2026-04-25 15:35 53.65444 9.59008 9585 ft 263 kts 255°
2026-04-25 15:36 53.63453 9.53636 10517 ft 283 kts 242°
2026-04-25 15:36 53.62263 9.50873 10739 ft 298 kts 242°
2026-04-25 15:36 53.61017 9.47985 10961 ft 311 kts 242°
2026-04-25 15:37 53.59718 9.44974 11176 ft 324 kts 241°
2026-04-25 15:37 53.58369 9.41845 11370 ft 337 kts 241°
2026-04-25 15:37 53.57024 9.38554 11606 ft 345 kts 244°
2026-04-25 15:37 53.55749 9.35095 12057 ft 349 kts 245°
2026-04-25 15:38 53.54497 9.31578 12556 ft 352 kts 246°
2026-04-25 15:38 53.53675 9.29229 12904 ft 353 kts 246°
2026-04-25 15:38 53.52409 9.25674 13396 ft 356 kts 245°
2026-04-25 15:38 53.50658 9.20946 14032 ft 361 kts 244°
2026-04-25 15:39 53.49312 9.17362 14545 ft 364 kts 244°
2026-04-25 15:39 53.48393 9.14922 14863 ft 366 kts 244°
2026-04-25 15:39 53.47030 9.11298 15342 ft 369 kts 244°
2026-04-25 15:39 53.45675 9.07689 15794 ft 371 kts 244°
2026-04-25 15:40 53.44293 9.04005 16263 ft 374 kts 244°
2026-04-25 15:40 53.43370 9.01543 16562 ft 376 kts 244°
2026-04-25 15:40 53.41497 8.96546 17159 ft 379 kts 245°
2026-04-25 15:40 53.40091 8.92797 17568 ft 382 kts 245°
2026-04-25 15:41 53.38668 8.89016 17896 ft 384 kts 243°
2026-04-25 15:41 53.37209 8.85255 18063 ft 388 kts 244°
2026-04-25 15:41 53.35761 8.81431 18516 ft 389 kts 244°
2026-04-25 15:41 53.34318 8.77579 18957 ft 391 kts 245°
2026-04-25 15:42 53.32871 8.73706 19366 ft 394 kts 245°
2026-04-25 15:42 53.31427 8.69855 19720 ft 398 kts 244°
2026-04-25 15:42 53.30103 8.65815 20089 ft 395 kts 252°
2026-04-25 15:42 53.29020 8.61595 20499 ft 395 kts 254°
2026-04-25 15:43 53.28016 8.57322 20909 ft 395 kts 255°
2026-04-25 15:43 53.27053 8.53001 21272 ft 398 kts 256°
2026-04-25 15:43 53.26108 8.48646 21599 ft 400 kts 256°
2026-04-25 15:43 53.25225 8.44221 21949 ft 401 kts 258°
2026-04-25 15:44 53.24403 8.39761 22296 ft 403 kts 259°
2026-04-25 15:44 53.23596 8.35262 22613 ft 405 kts 259°
2026-04-25 15:44 53.22781 8.30751 22964 ft 407 kts 259°
2026-04-25 15:44 53.21951 8.26223 23265 ft 409 kts 258°
2026-04-25 15:45 53.21102 8.21668 23526 ft 413 kts 258°
2026-04-25 15:45 53.20236 8.17087 23863 ft 415 kts 258°
2026-04-25 15:45 53.19360 8.12492 24161 ft 417 kts 258°
2026-04-25 15:45 53.18778 8.09437 24352 ft 418 kts 258°
2026-04-25 15:46 53.17618 8.03301 24724 ft 420 kts 258°
2026-04-25 15:46 53.16738 7.98646 24981 ft 423 kts 258°
2026-04-25 15:46 53.15850 7.93945 25163 ft 427 kts 258°
2026-04-25 15:46 53.14954 7.89210 25369 ft 430 kts 258°
2026-04-25 15:47 53.14049 7.84453 25661 ft 431 kts 258°
2026-04-25 15:47 53.13140 7.79685 25891 ft 434 kts 258°
2026-04-25 15:47 53.12222 7.74887 26143 ft 436 kts 258°
2026-04-25 15:47 53.11300 7.70075 26403 ft 437 kts 258°
2026-04-25 15:48 53.10374 7.65255 26655 ft 438 kts 258°
2026-04-25 15:48 53.09445 7.60416 26893 ft 440 kts 257°
2026-04-25 15:48 53.08506 7.55562 27081 ft 442 kts 257°
2026-04-25 15:48 53.07558 7.50684 27287 ft 444 kts 257°
2026-04-25 15:49 53.06603 7.45785 27518 ft 446 kts 257°
2026-04-25 15:49 53.05642 7.40872 27722 ft 447 kts 257°
2026-04-25 15:49 53.04676 7.35945 27932 ft 449 kts 257°
2026-04-25 15:49 53.03718 7.31061 28132 ft 450 kts 257°
2026-04-25 15:50 53.02745 7.26108 28304 ft 452 kts 257°
2026-04-25 15:50 53.01764 7.21130 28492 ft 454 kts 257°
2026-04-25 15:50 53.00772 7.16140 28715 ft 455 kts 257°
2026-04-25 15:50 52.99760 7.11139 28888 ft 457 kts 256°
2026-04-25 15:51 52.98739 7.06147 29140 ft 457 kts 256°
2026-04-25 15:51 52.98061 7.02848 29339 ft 456 kts 256°
2026-04-25 15:51 52.96690 6.96187 29611 ft 457 kts 256°
2026-04-25 15:51 52.95663 6.91198 29852 ft 456 kts 256°
2026-04-25 15:52 52.94640 6.86228 30085 ft 456 kts 256°
2026-04-25 15:52 52.93611 6.81234 30142 ft 458 kts 256°
2026-04-25 15:52 52.91253 6.71412 30156 ft 462 kts 248°
2026-04-25 15:53 52.88183 6.62032 30157 ft 464 kts 245°
2026-04-25 15:53 52.84953 6.52810 30160 ft 466 kts 245°
2026-04-25 15:54 52.81684 6.43549 30156 ft 466 kts 245°
2026-04-25 15:54 52.78428 6.34293 30158 ft 466 kts 245°
2026-04-25 15:55 52.75171 6.25021 30154 ft 466 kts 245°
2026-04-25 15:55 52.71927 6.15813 30163 ft 466 kts 244°
2026-04-25 15:56 52.68658 6.06574 30174 ft 466 kts 244°
2026-04-25 15:56 52.65370 5.97321 30175 ft 467 kts 244°
2026-04-25 15:57 52.62083 5.88100 30174 ft 468 kts 244°
2026-04-25 15:57 52.58861 5.78787 30174 ft 465 kts 249°
2026-04-25 15:58 52.56279 5.69137 30184 ft 463 kts 251°
2026-04-25 15:58 52.53806 5.59367 30183 ft 462 kts 252°
2026-04-25 15:59 52.51358 5.49591 30183 ft 462 kts 252°
2026-04-25 15:59 52.48898 5.39831 30184 ft 463 kts 251°
2026-04-25 16:00 52.47259 5.33369 30183 ft 463 kts 251°
2026-04-25 16:00 52.43950 5.20396 30184 ft 463 kts 251°
2026-04-25 16:01 52.41456 5.10671 30185 ft 463 kts 251°
2026-04-25 16:01 52.38949 5.00951 30183 ft 462 kts 251°
2026-04-25 16:02 52.36387 4.91283 30183 ft 463 kts 250°
2026-04-25 16:02 52.33795 4.81633 30184 ft 463 kts 250°
2026-04-25 16:03 52.31207 4.72009 30183 ft 462 kts 250°
2026-04-25 16:03 52.28621 4.62405 30183 ft 462 kts 250°
2026-04-25 16:04 52.26029 4.52801 30183 ft 461 kts 250°
2026-04-25 16:04 52.23452 4.43299 30183 ft 460 kts 250°
2026-04-25 16:05 52.20847 4.33738 30185 ft 461 kts 249°
2026-04-25 16:06 52.16934 4.19447 30193 ft 460 kts 249°
2026-04-25 16:06 52.14317 4.09941 30193 ft 459 kts 249°
2026-04-25 16:07 52.11699 4.00462 30199 ft 459 kts 249°
2026-04-25 16:07 52.09118 3.90958 30202 ft 458 kts 252°
2026-04-25 16:08 52.06854 3.81290 30201 ft 457 kts 252°
2026-04-25 16:08 52.04648 3.71650 30210 ft 457 kts 253°
2026-04-25 16:09 52.02435 3.61954 30212 ft 458 kts 253°
2026-04-25 16:09 52.00243 3.52239 30216 ft 457 kts 255°
2026-04-25 16:10 51.98905 3.42207 30227 ft 454 kts 263°
2026-04-25 16:10 51.97921 3.32100 30244 ft 453 kts 264°
2026-04-25 16:11 51.96985 3.21970 30245 ft 454 kts 263°
2026-04-25 16:11 51.96080 3.11834 30236 ft 454 kts 265°
2026-04-25 16:12 51.95445 3.01703 30233 ft 454 kts 266°
2026-04-25 16:12 51.94848 2.91492 30226 ft 455 kts 266°
2026-04-25 16:13 51.94200 2.81268 30232 ft 456 kts 265°
2026-04-25 16:13 51.93513 2.71029 30227 ft 457 kts 265°
2026-04-25 16:14 51.92817 2.60770 30231 ft 458 kts 265°
2026-04-25 16:14 51.92106 2.50513 30229 ft 459 kts 265°
2026-04-25 16:15 51.91389 2.40302 30224 ft 459 kts 264°
2026-04-25 16:15 51.90664 2.30020 30220 ft 460 kts 265°
2026-04-25 16:16 51.90339 2.19687 30221 ft 459 kts 269°
2026-04-25 16:16 51.89566 2.09429 30219 ft 462 kts 256°
2026-04-25 16:17 51.87419 1.99596 30217 ft 463 kts 250°
2026-04-25 16:17 51.84933 1.89945 30211 ft 464 kts 249°
2026-04-25 16:18 51.82413 1.80353 30201 ft 464 kts 249°
2026-04-25 16:18 51.79912 1.70746 30201 ft 463 kts 249°
2026-04-25 16:19 51.77436 1.61208 30202 ft 463 kts 249°
2026-04-25 16:19 51.74943 1.51624 30201 ft 463 kts 249°
2026-04-25 16:20 51.71192 1.37279 30203 ft 462 kts 248°
2026-04-25 16:21 51.67425 1.22972 30202 ft 462 kts 248°
2026-04-25 16:21 51.64908 1.13459 30201 ft 462 kts 248°
2026-04-25 16:22 51.62403 1.04035 30206 ft 461 kts 248°
2026-04-25 16:22 51.59870 0.94548 30212 ft 461 kts 247°
2026-04-25 16:23 51.57328 0.85077 30212 ft 460 kts 247°
2026-04-25 16:23 51.55217 0.77220 30212 ft 460 kts 247°
2026-04-25 16:24 51.52261 0.66275 30211 ft 459 kts 247°
2026-04-25 16:24 51.49712 0.56870 30211 ft 460 kts 247°
2026-04-25 16:25 51.47567 0.48992 30211 ft 460 kts 246°
2026-04-25 16:25 51.45000 0.39602 30202 ft 460 kts 246°
2026-04-25 16:26 51.42436 0.30259 30202 ft 460 kts 246°
2026-04-25 16:26 51.39854 0.20878 30201 ft 460 kts 246°
2026-04-25 16:27 51.37262 0.11506 30201 ft 460 kts 246°
2026-04-25 16:27 51.34659 0.02143 30211 ft 460 kts 246°
2026-04-25 16:28 51.32053 -0.07200 30211 ft 460 kts 247°
2026-04-25 16:28 51.29426 -0.16589 30200 ft 465 kts 247°
2026-04-25 16:29 51.26776 -0.26021 30197 ft 466 kts 247°
2026-04-25 16:29 51.24113 -0.35459 30192 ft 466 kts 247°
2026-04-25 16:30 51.21445 -0.44876 30190 ft 466 kts 247°
2026-04-25 16:30 51.18773 -0.54282 30183 ft 466 kts 247°
2026-04-25 16:31 51.16104 -0.63621 30183 ft 466 kts 247°
2026-04-25 16:31 51.13411 -0.73000 30185 ft 466 kts 247°
2026-04-25 16:32 51.10710 -0.82385 30184 ft 466 kts 247°
2026-04-25 16:32 51.08000 -0.91762 30183 ft 466 kts 247°
2026-04-25 16:33 51.05287 -1.01114 30184 ft 466 kts 246°
2026-04-25 16:33 51.02566 -1.10460 30183 ft 466 kts 246°
2026-04-25 16:34 50.99850 -1.19750 30184 ft 466 kts 246°
2026-04-25 16:34 50.96980 -1.28976 30192 ft 467 kts 240°
2026-04-25 16:34 50.95100 -1.33185 30341 ft 470 kts 232°
2026-04-25 16:35 50.92827 -1.36913 30598 ft 471 kts 223°
2026-04-25 16:35 50.90279 -1.40191 30855 ft 472 kts 218°
2026-04-25 16:35 50.87587 -1.43171 31096 ft 472 kts 216°
2026-04-25 16:36 50.82058 -1.48757 31191 ft 469 kts 214°
2026-04-25 16:36 50.76555 -1.54258 31193 ft 467 kts 214°
2026-04-25 16:37 50.71096 -1.59820 31202 ft 467 kts 215°
2026-04-25 16:37 50.65646 -1.65434 31201 ft 467 kts 215°
2026-04-25 16:38 50.60233 -1.71004 31204 ft 467 kts 215°
2026-04-25 16:38 50.54778 -1.76599 31202 ft 468 kts 215°
2026-04-25 16:39 50.49317 -1.82180 31202 ft 468 kts 215°
2026-04-25 16:39 50.43856 -1.87743 31201 ft 468 kts 215°
2026-04-25 16:40 50.38389 -1.93296 31201 ft 468 kts 215°
2026-04-25 16:40 50.32918 -1.98837 31197 ft 469 kts 215°
2026-04-25 16:41 50.27438 -2.04373 31193 ft 468 kts 215°
2026-04-25 16:41 50.19221 -2.12559 31193 ft 469 kts 214°
2026-04-25 16:42 50.13665 -2.17933 31192 ft 469 kts 214°
2026-04-25 16:42 50.08110 -2.23294 31192 ft 469 kts 214°
2026-04-25 16:43 50.02560 -2.28655 31184 ft 469 kts 214°
2026-04-25 16:43 49.97041 -2.33983 31182 ft 469 kts 214°
2026-04-25 16:44 49.91465 -2.39273 31186 ft 469 kts 211°
2026-04-25 16:44 49.85648 -2.43903 31182 ft 470 kts 208°
2026-04-25 16:45 49.79749 -2.48351 31182 ft 471 kts 208°
2026-04-25 16:45 49.73864 -2.52888 31183 ft 474 kts 209°
2026-04-25 16:46 49.67979 -2.57508 31183 ft 474 kts 209°
2026-04-25 16:46 49.64082 -2.60571 31184 ft 474 kts 209°
2026-04-25 16:47 49.56256 -2.66708 31182 ft 474 kts 209°
2026-04-25 16:47 49.50372 -2.71309 31184 ft 474 kts 209°
2026-04-25 16:48 49.44495 -2.75890 31182 ft 473 kts 209°
2026-04-25 16:48 49.38610 -2.80457 31182 ft 474 kts 209°
2026-04-25 16:49 49.32723 -2.85011 31179 ft 473 kts 209°
2026-04-25 16:49 49.26869 -2.89532 31176 ft 473 kts 209°
2026-04-25 16:50 49.20978 -2.94068 31175 ft 473 kts 209°
2026-04-25 16:50 49.15089 -2.98594 31174 ft 474 kts 209°
2026-04-25 16:51 49.09186 -3.03118 31170 ft 474 kts 209°
2026-04-25 16:51 49.05279 -3.06106 31164 ft 474 kts 209°
2026-04-25 16:52 48.97428 -3.12090 31167 ft 474 kts 209°
2026-04-25 16:52 48.91526 -3.16572 31166 ft 474 kts 208°
2026-04-25 16:53 48.82650 -3.23294 31165 ft 475 kts 209°
2026-04-25 16:54 48.76722 -3.27768 31165 ft 475 kts 208°
2026-04-25 16:54 48.70792 -3.32233 31147 ft 476 kts 208°
2026-04-25 16:55 48.64847 -3.36700 31149 ft 477 kts 208°
2026-04-25 16:55 48.58883 -3.41167 31167 ft 478 kts 208°
2026-04-25 16:56 48.52959 -3.45592 31167 ft 479 kts 208°
2026-04-25 16:56 48.46974 -3.50052 31166 ft 480 kts 208°
2026-04-25 16:57 48.40987 -3.54500 31174 ft 481 kts 208°
2026-04-25 16:57 48.34991 -3.58970 31171 ft 481 kts 211°
2026-04-25 16:58 48.29394 -3.64422 31165 ft 479 kts 218°
2026-04-25 16:58 48.23985 -3.70272 31160 ft 479 kts 219°
2026-04-25 16:59 48.18585 -3.76192 31164 ft 481 kts 219°
2026-04-25 16:59 48.13200 -3.82047 31166 ft 481 kts 218°
2026-04-25 17:00 48.07709 -3.87811 31167 ft 482 kts 217°
2026-04-25 17:00 48.02189 -3.93541 31166 ft 483 kts 217°
2026-04-25 17:01 47.96669 -3.99285 31149 ft 483 kts 218°
2026-04-25 17:01 47.91156 -4.05029 31165 ft 483 kts 218°
2026-04-25 17:02 47.85645 -4.10760 31163 ft 483 kts 218°
2026-04-25 17:02 47.80161 -4.16448 31150 ft 483 kts 217°
2026-04-25 17:03 47.74642 -4.22158 31148 ft 483 kts 217°
2026-04-25 17:03 47.69119 -4.27855 31148 ft 483 kts 217°
2026-04-25 17:04 47.63597 -4.33534 31164 ft 483 kts 217°
2026-04-25 17:04 47.58072 -4.39202 31165 ft 483 kts 217°
2026-04-25 17:05 47.52580 -4.44821 31148 ft 482 kts 217°
2026-04-25 17:05 47.44296 -4.53268 31149 ft 482 kts 217°
2026-04-25 17:06 47.38770 -4.58887 31146 ft 482 kts 217°
2026-04-25 17:06 47.33246 -4.64489 31148 ft 481 kts 217°
2026-04-25 17:07 47.27727 -4.70072 31166 ft 481 kts 217°
2026-04-25 17:07 47.22194 -4.75653 31151 ft 481 kts 217°
2026-04-25 17:08 47.16696 -4.81186 31148 ft 482 kts 217°
2026-04-25 17:08 47.11163 -4.86740 31148 ft 482 kts 217°
2026-04-25 17:09 47.05623 -4.92283 31163 ft 481 kts 217°
2026-04-25 17:09 47.00084 -4.97813 31163 ft 482 kts 217°
2026-04-25 17:10 46.94545 -5.03329 31148 ft 482 kts 217°
2026-04-25 17:10 46.89937 -5.07914 31165 ft 482 kts 217°
2026-04-25 17:11 46.84383 -5.13422 31165 ft 482 kts 217°
2026-04-25 17:11 46.78823 -5.18918 31166 ft 483 kts 217°
2026-04-25 17:12 46.73245 -5.24420 31161 ft 483 kts 217°
2026-04-25 17:12 46.67711 -5.29864 31175 ft 483 kts 217°
2026-04-25 17:13 46.63068 -5.34421 31177 ft 484 kts 217°
2026-04-25 17:13 46.56532 -5.40820 31173 ft 484 kts 217°
2026-04-25 17:14 46.50937 -5.46280 31174 ft 484 kts 217°
2026-04-25 17:14 46.45332 -5.51734 31174 ft 485 kts 217°
2026-04-25 17:15 46.39715 -5.57192 31177 ft 486 kts 217°
2026-04-25 17:15 46.34118 -5.62617 31172 ft 487 kts 217°
2026-04-25 17:16 46.28480 -5.68068 31174 ft 487 kts 216°
2026-04-25 17:16 46.22835 -5.73509 31176 ft 488 kts 216°
2026-04-25 17:17 46.17175 -5.78953 31177 ft 489 kts 216°
2026-04-25 17:17 46.11502 -5.84398 31176 ft 489 kts 216°
2026-04-25 17:18 46.05862 -5.89798 31177 ft 490 kts 216°
2026-04-25 17:18 46.00184 -5.95214 31176 ft 489 kts 216°
2026-04-25 17:19 45.94501 -6.00627 31175 ft 490 kts 216°
2026-04-25 17:19 45.88817 -6.06029 31175 ft 489 kts 216°
2026-04-25 17:20 45.83128 -6.11421 31171 ft 489 kts 216°
2026-04-25 17:20 45.77439 -6.16794 31175 ft 490 kts 216°
2026-04-25 17:21 45.71788 -6.22120 31175 ft 489 kts 216°
2026-04-25 17:21 45.66098 -6.27470 31173 ft 489 kts 216°
2026-04-25 17:22 45.61373 -6.31903 31173 ft 488 kts 216°
2026-04-25 17:22 45.54725 -6.38126 31175 ft 488 kts 216°
2026-04-25 17:23 45.49042 -6.43432 31173 ft 488 kts 216°
2026-04-25 17:23 45.43366 -6.48717 31171 ft 488 kts 216°
2026-04-25 17:24 45.37677 -6.54000 31172 ft 487 kts 215°
2026-04-25 17:24 45.32038 -6.59235 31173 ft 486 kts 216°
2026-04-25 17:25 45.26996 -6.65536 31172 ft 480 kts 233°
2026-04-25 17:25 45.23548 -6.73536 31175 ft 474 kts 247°
2026-04-25 17:26 45.20874 -6.82072 31174 ft 473 kts 249°
2026-04-25 17:26 45.18314 -6.90689 31176 ft 473 kts 249°
2026-04-25 17:27 45.15722 -6.99263 31173 ft 473 kts 249°
2026-04-25 17:27 45.13984 -7.04921 31175 ft 473 kts 248°
2026-04-25 17:28 45.10463 -7.16272 31184 ft 473 kts 248°
2026-04-25 17:28 45.07797 -7.24830 31183 ft 472 kts 248°
2026-04-25 17:29 45.05159 -7.33276 31183 ft 472 kts 248°
2026-04-25 17:29 45.02494 -7.41782 31183 ft 472 kts 248°
2026-04-25 17:30 44.99827 -7.50264 31186 ft 472 kts 248°
2026-04-25 17:30 44.97174 -7.58679 31185 ft 472 kts 248°
2026-04-25 17:31 44.94481 -7.67191 31183 ft 472 kts 248°
2026-04-25 17:31 44.91807 -7.75613 31348 ft 473 kts 248°
2026-04-25 17:32 44.89111 -7.84076 31503 ft 472 kts 248°
2026-04-25 17:32 44.86415 -7.92510 31650 ft 472 kts 248°
2026-04-25 17:33 44.83715 -8.00938 31806 ft 471 kts 248°
2026-04-25 17:33 44.81015 -8.09339 31955 ft 469 kts 247°
2026-04-25 17:34 44.78316 -8.17697 32113 ft 468 kts 247°
2026-04-25 17:34 44.75632 -8.25982 32235 ft 467 kts 247°
2026-04-25 17:35 44.72934 -8.34286 32331 ft 467 kts 247°
2026-04-25 17:35 44.70231 -8.42591 32431 ft 467 kts 247°
2026-04-25 17:36 44.67526 -8.50876 32530 ft 466 kts 247°
2026-04-25 17:36 44.64814 -8.59146 32638 ft 466 kts 247°
2026-04-25 17:37 44.62100 -8.67402 32729 ft 464 kts 247°
2026-04-25 17:37 44.59391 -8.75616 32831 ft 463 kts 246°
2026-04-25 17:38 44.57595 -8.81045 32904 ft 463 kts 246°
2026-04-25 17:38 44.53981 -8.91936 33030 ft 462 kts 246°
2026-04-25 17:39 44.51270 -9.00084 33132 ft 461 kts 246°
2026-04-25 17:39 44.48551 -9.08231 33151 ft 460 kts 246°
2026-04-25 17:40 44.45835 -9.16342 33149 ft 459 kts 246°
2026-04-25 17:40 44.43060 -9.24409 33163 ft 459 kts 244°
2026-04-25 17:41 44.40200 -9.32347 33153 ft 459 kts 244°
2026-04-25 17:41 44.37323 -9.40313 33152 ft 459 kts 244°
2026-04-25 17:42 44.34456 -9.48292 33153 ft 458 kts 244°
2026-04-25 17:42 44.31597 -9.56250 33156 ft 457 kts 244°
2026-04-25 17:43 44.28743 -9.64179 33151 ft 457 kts 244°
2026-04-25 17:43 44.25876 -9.72113 33171 ft 457 kts 244°
2026-04-25 17:44 44.23008 -9.80023 33090 ft 456 kts 244°
2026-04-25 17:44 44.20144 -9.87902 32924 ft 456 kts 244°
2026-04-25 17:45 44.18241 -9.93123 32820 ft 457 kts 244°
2026-04-25 17:45 44.15828 -9.99734 32685 ft 457 kts 244°
2026-04-25 17:45 44.14400 -10.03639 32610 ft 457 kts 243°
2026-04-25 17:46 44.11500 -10.11549 32463 ft 459 kts 244°
2026-04-25 17:46 44.08595 -10.19456 32310 ft 459 kts 243°
2026-04-25 17:47 44.05677 -10.27372 32161 ft 460 kts 243°
2026-04-25 17:47 44.02749 -10.35293 32006 ft 461 kts 243°
2026-04-25 17:48 43.99813 -10.43212 31860 ft 461 kts 243°
2026-04-25 17:48 43.98338 -10.47181 31778 ft 461 kts 243°
2026-04-25 17:49 43.95385 -10.55110 31624 ft 464 kts 243°
2026-04-25 17:49 43.92413 -10.63067 31472 ft 464 kts 243°
2026-04-25 17:50 43.89437 -10.71015 31323 ft 464 kts 243°
2026-04-25 17:50 43.86454 -10.78962 31175 ft 465 kts 243°
2026-04-25 17:51 43.83463 -10.86912 30937 ft 465 kts 243°
2026-04-25 17:51 43.81987 -10.90824 30697 ft 465 kts 242°
2026-04-25 17:51 43.80483 -10.94800 30444 ft 465 kts 242°
2026-04-25 17:51 43.78980 -10.98770 30193 ft 466 kts 242°
2026-04-25 17:52 43.77470 -11.02754 29859 ft 467 kts 242°
2026-04-25 17:52 43.76959 -11.04100 29728 ft 467 kts 242°
2026-04-25 17:52 43.74444 -11.10720 29099 ft 468 kts 242°
2026-04-25 17:52 43.72925 -11.14708 28723 ft 469 kts 242°
2026-04-25 17:53 43.71401 -11.18706 28342 ft 469 kts 242°
2026-04-25 17:53 43.69882 -11.22682 28149 ft 466 kts 242°
2026-04-25 17:53 43.68370 -11.26634 28138 ft 465 kts 242°
2026-04-25 17:54 43.65351 -11.34515 28135 ft 463 kts 242°
2026-04-25 17:54 43.62853 -11.41017 28145 ft 460 kts 241°
2026-04-25 17:55 43.59873 -11.48735 28151 ft 453 kts 241°
2026-04-25 17:55 43.56432 -11.57634 28141 ft 452 kts 241°
2026-04-25 17:56 43.53955 -11.64034 28143 ft 452 kts 241°
2026-04-25 17:56 43.50995 -11.71666 28141 ft 451 kts 241°
2026-04-25 17:57 43.48045 -11.79248 28123 ft 451 kts 241°
2026-04-25 17:57 43.45073 -11.86854 28118 ft 451 kts 241°
2026-04-25 17:58 43.42098 -11.94461 28117 ft 451 kts 241°
2026-04-25 17:58 43.39134 -12.02024 28120 ft 451 kts 241°
2026-04-25 17:59 43.36153 -12.09603 28119 ft 449 kts 240°
2026-04-25 17:59 43.33173 -12.17157 28111 ft 449 kts 240°
2026-04-25 18:00 43.30691 -12.23428 28099 ft 449 kts 240°
2026-04-25 18:00 43.27218 -12.32191 28101 ft 449 kts 240°
2026-04-25 18:01 43.24230 -12.39715 28100 ft 449 kts 240°
2026-04-25 18:01 43.21233 -12.47237 28101 ft 449 kts 240°
2026-04-25 18:02 43.18230 -12.54753 28102 ft 449 kts 240°
2026-04-25 18:02 43.15227 -12.62254 28100 ft 449 kts 240°
2026-04-25 18:03 43.12213 -12.69756 28102 ft 450 kts 240°
2026-04-25 18:03 43.09188 -12.77263 28100 ft 450 kts 240°
2026-04-25 18:04 43.06166 -12.84753 28100 ft 450 kts 240°
2026-04-25 18:04 43.03130 -12.92252 28100 ft 450 kts 240°
2026-04-25 18:05 43.00099 -12.99722 28100 ft 449 kts 240°
2026-04-25 18:05 42.96867 -13.06957 28101 ft 450 kts 236°
2026-04-25 18:06 42.93325 -13.13998 28100 ft 450 kts 234°
2026-04-25 18:06 42.89789 -13.21050 28100 ft 450 kts 235°
2026-04-25 18:07 42.86307 -13.28138 28101 ft 450 kts 236°
2026-04-25 18:07 42.82841 -13.35245 28101 ft 450 kts 236°
2026-04-25 18:08 42.79372 -13.42343 28101 ft 450 kts 236°
2026-04-25 18:08 42.75911 -13.49401 28102 ft 454 kts 237°
2026-04-25 18:09 42.72380 -13.56578 28099 ft 457 kts 237°
2026-04-25 18:09 42.68835 -13.63763 28101 ft 458 kts 237°
2026-04-25 18:10 42.65281 -13.70967 28101 ft 459 kts 237°
2026-04-25 18:10 42.61718 -13.78151 28101 ft 458 kts 237°
2026-04-25 18:11 42.58173 -13.85279 28100 ft 459 kts 237°
2026-04-25 18:11 42.54592 -13.92464 28101 ft 460 kts 237°
2026-04-25 18:12 42.50998 -13.99658 28100 ft 460 kts 237°
2026-04-25 18:12 42.47400 -14.06844 28099 ft 460 kts 237°
2026-04-25 18:13 42.43802 -14.14015 28101 ft 460 kts 237°
2026-04-25 18:13 42.40197 -14.21188 28099 ft 460 kts 237°
2026-04-25 18:14 42.34805 -14.31878 28100 ft 460 kts 236°
2026-04-25 18:14 42.31188 -14.39025 28082 ft 461 kts 236°
2026-04-25 18:15 42.27570 -14.46160 28082 ft 460 kts 236°
2026-04-25 18:15 42.23947 -14.53281 28082 ft 459 kts 236°
2026-04-25 18:16 42.20325 -14.60389 28082 ft 459 kts 236°
2026-04-25 18:17 42.14896 -14.71024 28082 ft 458 kts 236°
2026-04-25 18:17 42.11280 -14.78080 28082 ft 457 kts 236°
2026-04-25 18:18 42.07669 -14.85108 28082 ft 456 kts 236°
2026-04-25 18:18 42.04078 -14.92080 28082 ft 455 kts 236°
2026-04-25 18:19 42.00621 -14.99197 28083 ft 453 kts 243°
2026-04-25 18:19 41.98335 -15.07077 28083 ft 452 kts 252°
2026-04-25 18:20 41.96457 -15.15120 28081 ft 454 kts 253°
2026-04-25 18:20 41.94622 -15.23240 28082 ft 453 kts 253°
2026-04-25 18:21 41.92771 -15.31326 28082 ft 452 kts 253°
2026-04-25 18:21 41.90903 -15.39384 28082 ft 452 kts 253°
2026-04-25 18:22 41.89022 -15.47440 28082 ft 451 kts 253°
2026-04-25 18:22 41.87141 -15.55456 28083 ft 450 kts 253°
2026-04-25 18:23 41.85262 -15.63438 28082 ft 449 kts 252°
2026-04-25 18:23 41.83376 -15.71423 28082 ft 448 kts 252°
2026-04-25 18:24 41.81491 -15.79385 28069 ft 448 kts 252°
2026-04-25 18:24 41.79602 -15.87333 28064 ft 448 kts 252°
2026-04-25 18:25 41.77720 -15.95227 28061 ft 448 kts 252°
2026-04-25 18:25 41.75819 -16.03174 28064 ft 447 kts 252°
2026-04-25 18:26 41.73914 -16.11100 28065 ft 447 kts 252°
2026-04-25 18:26 41.72007 -16.19013 28061 ft 446 kts 252°
2026-04-25 18:27 41.70093 -16.26930 28064 ft 447 kts 252°
2026-04-25 18:27 41.68177 -16.34831 28061 ft 447 kts 252°
2026-04-25 18:28 41.66255 -16.42731 28062 ft 446 kts 252°
2026-04-25 18:28 41.64328 -16.50620 28065 ft 447 kts 252°
2026-04-25 18:29 41.61436 -16.62406 28062 ft 446 kts 252°
2026-04-25 18:30 41.57549 -16.78157 28063 ft 446 kts 251°
2026-04-25 18:30 41.55599 -16.86021 28073 ft 445 kts 251°
2026-04-25 18:31 41.53646 -16.93870 28073 ft 445 kts 251°
2026-04-25 18:31 41.51689 -17.01710 28073 ft 444 kts 251°
2026-04-25 18:32 41.49730 -17.09532 28073 ft 444 kts 251°
2026-04-25 18:32 41.47767 -17.17343 28073 ft 443 kts 251°
2026-04-25 18:33 41.45817 -17.25078 28072 ft 443 kts 251°
2026-04-25 18:33 41.43849 -17.32853 28073 ft 442 kts 251°
2026-04-25 18:34 41.41876 -17.40619 28106 ft 442 kts 251°
2026-04-25 18:34 41.39902 -17.48368 28110 ft 441 kts 251°
2026-04-25 18:35 41.37929 -17.56098 28109 ft 441 kts 251°
2026-04-25 18:35 41.35950 -17.63826 28110 ft 440 kts 251°
2026-04-25 18:36 41.33974 -17.71506 28110 ft 440 kts 250°
2026-04-25 18:36 41.31989 -17.79199 28109 ft 439 kts 250°
2026-04-25 18:37 41.29998 -17.86893 28110 ft 439 kts 250°
2026-04-25 18:37 41.28006 -17.94571 28111 ft 439 kts 250°
2026-04-25 18:38 41.26003 -18.02265 28110 ft 439 kts 250°
2026-04-25 18:38 41.23999 -18.09934 28109 ft 439 kts 250°
2026-04-25 18:39 41.21993 -18.17585 28109 ft 438 kts 250°
2026-04-25 18:39 41.19984 -18.25227 28110 ft 438 kts 250°
2026-04-25 18:40 41.17981 -18.32822 28109 ft 439 kts 250°
2026-04-25 18:40 41.15958 -18.40464 28110 ft 439 kts 250°
2026-04-25 18:41 41.14275 -18.46820 28109 ft 439 kts 250°
2026-04-25 18:41 41.12242 -18.54467 28111 ft 439 kts 250°
2026-04-25 18:42 41.10533 -18.60873 28109 ft 439 kts 250°
2026-04-25 18:42 41.08156 -18.69753 28109 ft 439 kts 250°
2026-04-25 18:43 41.06103 -18.77386 28108 ft 440 kts 249°
2026-04-25 18:43 41.04043 -18.85021 28110 ft 439 kts 249°
2026-04-25 18:44 41.01999 -18.92604 28110 ft 439 kts 249°
2026-04-25 18:44 41.00335 -19.00388 28110 ft 441 kts 261°
2026-04-25 18:45 41.00085 -19.08518 28118 ft 443 kts 268°
2026-04-25 18:45 41.00209 -19.16682 28118 ft 444 kts 269°
2026-04-25 18:46 41.00380 -19.24798 28117 ft 443 kts 269°
2026-04-25 18:46 41.00525 -19.32963 28119 ft 443 kts 269°
2026-04-25 18:47 41.00643 -19.41123 28118 ft 444 kts 269°
2026-04-25 18:47 41.00748 -19.49294 28111 ft 443 kts 269°
2026-04-25 18:48 41.00851 -19.57448 28110 ft 443 kts 269°
2026-04-25 18:48 41.00951 -19.65592 28109 ft 443 kts 269°
2026-04-25 18:49 41.01043 -19.73754 28110 ft 443 kts 268°
2026-04-25 18:49 41.01127 -19.81864 28109 ft 443 kts 268°
2026-04-25 18:50 41.01207 -19.90021 28110 ft 443 kts 268°
2026-04-25 18:50 41.01282 -19.98169 28109 ft 443 kts 268°
2026-04-25 18:51 41.01339 -20.04951 28109 ft 442 kts 268°
2026-04-25 18:51 41.01414 -20.14461 28111 ft 442 kts 268°
2026-04-25 18:52 41.01471 -20.22548 28109 ft 442 kts 268°
2026-04-25 18:52 41.01522 -20.30696 28110 ft 442 kts 268°
2026-04-25 18:53 41.01568 -20.38833 28109 ft 442 kts 268°
2026-04-25 18:53 41.01608 -20.46978 28109 ft 442 kts 268°
2026-04-25 18:54 41.01656 -20.59196 28109 ft 442 kts 268°